www.pogodaiklimat.ru

Погода и климат >> Архив погоды >> Иран >> Bandar Lengeh


ПОГОДА в Bandar Lengeh

  • Прогноз погоды в Bandar Lengeh
  • Монитор погоды в Bandar Lengeh
  • Климат города

АРХИВ ПОГОДЫ в Bandar Lengeh

Время (UTC), дата Ветер
(напр.,м/с)
 
Видим.   Явления Облачность Т
(С)
Тd
(С)
f
(%)
Тe
(С)
Тes
(С)
Комфортность P
(гПа)
Po
(гПа)
Тmin
(С)
Tmax
(С)
R
(мм)
R24
(мм)
S
(см)
09 11.08 В 8 7000 м пыльный позёмок ясно +38.0 +27.5 55 +56 +60 опасность
перегрева
1000.2 998.1
12 11.08 ЮВ 5 10 км ясно +37.4 +28.0 59 +58 +62 опасность
перегрева
998.1 996.0
15 11.08 штиль 0 10 км ясно +35.8 +26.5 59 +53 +53 опасность
перегрева
998.4 996.3 +38.8
18 11.08 штиль 0 10 км ясно +34.4 +26.4 63 +51 +51 опасность
перегрева
998.4 996.3
21 11.08 В 4 10 км 4/0
[Ci sp]
+33.8 +28.7 75 +57 +57 опасность
перегрева
998.9 996.8
00 12.08 В 4 10 км 4/0
[Ci sp]
+33.2 +28.6 77 +56 +56 опасность
перегрева
998.6 996.5
03 12.08 В 5 7000 м дымка 5/0
[Ac trans]
+33.0 +29.3 81 +58 +58 опасность
перегрева
998.9 996.8 +32.2
06 12.08 В 7 6000 м пыльный позёмок ясно +35.0 +28.9 71 +58 +63 опасность
перегрева
1000.9 998.8
09 12.08 В 3 6000 м мгла ясно +37.3 +27.8 58 +57 +74 опасность
перегрева
999.7 997.6
12 12.08 ЮВ 4 6000 м мгла ясно +37.2 +28.7 62 +60 +65 опасность
перегрева
998.2 996.1
15 12.08 ЮЗ 3 6000 м мгла 3/0
[Ac trans]
+36.1 +26.1 57 +52 +52 опасность
перегрева
997.5 995.4 +38.3
18 12.08 штиль 0 7000 м мгла ясно +34.8 +21.9 47 +43 +43 опасность
перегрева
998.3 996.2
21 12.08 СВ 2 7000 м мгла ясно +33.7 +23.6 56 +45 +45 опасность
перегрева
998.1 996.0
00 13.08 В 4 5000 м мгла ясно +33.2 +28.6 77 +56 +56 опасность
перегрева
997.8 995.7
03 13.08 В 4 5000 м мгла ясно +33.1 +27.8 74 +53 +54 опасность
перегрева
999.0 996.9 +32.2
06 13.08 В 4 5000 м мгла ясно +35.9 +25.7 56 +51 +61 опасность
перегрева
1000.7 998.6
09 13.08 Ю 3 5000 м мгла ясно +36.8 +27.5 59 +56 +73 опасность
перегрева
999.9 997.8
12 13.08 ЮЗ 5 6000 м мгла ясно +37.4 +29.6 65 +63 +67 опасность
перегрева
998.2 996.1
15 13.08 З 4 6000 м мгла 8/0
[As trans]
+37.1 +26.8 56 +54 +54 опасность
перегрева
997.8 995.7 +38.7
18 13.08 С 2 6000 м мгла ясно +35.7 +22.2 46 +45 +45 опасность
перегрева
998.3 996.2
21 13.08 ЮВ 2 6000 м мгла ясно +35.1 +24.0 53 +47 +47 опасность
перегрева
998.8 996.7
00 14.08 ЮВ 4 4000 м дымка ясно +33.3 +32.3 95 +70 +70 опасность
перегрева
999.2 997.1
03 14.08 В 5 5000 м мгла 4/1 900 м
[Sc diur, vesp Ac trans]
+33.8 +27.3 69 +53 +53 опасность
перегрева
1000.4 998.3 +32.8
06 14.08 В 6 5000 м мгла 1/0
[Ac trans]
+36.0 +28.2 64 +57 +62 опасность
перегрева
1001.8 999.7
09 14.08 ЮВ 5 7000 м мгла 1/0
[Ac trans]
+37.3 +28.5 61 +59 +69 опасность
перегрева
1001.1 999.0
12 14.08 Ю 4 7000 м мгла ясно +37.2 +27.5 58 +56 +62 опасность
перегрева
999.5 997.4
15 14.08 ЮЗ 4 6000 м мгла 3/0
[Ac trans]
+36.1 +26.2 57 +52 +52 опасность
перегрева
998.5 996.4 +38.7
18 14.08 Ю 2 6000 м мгла ясно +35.2 +27.6 65 +55 +55 опасность
перегрева
1000.6 998.4
21 14.08 В 4 6000 м мгла 4/0
[Ac trans]
+34.0 +27.5 69 +53 +53 опасность
перегрева
1000.5 998.3
00 15.08 В 7 6000 м дымка ясно +32.5 +28.9 81 +55 +55 опасность
перегрева
1000.4 998.2
03 15.08 В 6 5000 м мгла 1/0
[Ac trans]
+32.8 +27.6 74 +52 +53 опасность
перегрева
1002.3 1000.2 +32.2
06 15.08 В 6 7000 м мгла ясно +35.7 +26.5 59 +52 +58 опасность
перегрева
1003.6 1001.5
09 15.08 ЮВ 4 6000 м мгла ясно +38.1 +25.3 48 +52 +65 опасность
перегрева
1002.7 1000.6
12 15.08 Ю 4 6000 м мгла ясно +37.9 +23.4 44 +48 +54 опасность
перегрева
1000.6 998.5
15 15.08 ЮЗ 4 6000 м мгла ясно +35.0 +26.4 61 +51 +51 опасность
перегрева
1000.3 998.1 +39.2
18 15.08 ЮВ 2 6000 м мгла ясно +33.9 +26.9 67 +52 +52 опасность
перегрева
1001.8 999.7
21 15.08 В 3 7000 м мгла ясно +33.9 +25.1 60 +48 +48 опасность
перегрева
1001.7 999.6
00 16.08 В 4 7000 м мгла ясно +32.9 +27.6 74 +53 +53 опасность
перегрева
1001.7 999.6
03 16.08 В 5 5000 м мгла 4/0
[Ac As]
+32.5 +27.9 77 +53 +53 опасность
перегрева
1003.1 1001.0 +32.0
06 16.08 В 5 6000 м мгла 1/0
[Ac trans]
+35.1 +27.4 64 +54 +61 опасность
перегрева
1004.8 1002.7
09 16.08 Ю 5 5000 м мгла 1/1 600 м
[St]
+36.9 +27.1 57 +55 +64 опасность
перегрева
1003.5 1001.4
12 16.08 ЮЗ 6 5000 м мгла ясно +36.2 +27.0 59 +54 +57 опасность
перегрева
1001.4 999.3
15 16.08 З 4 5000 м мгла ясно +34.1 +27.4 68 +53 +53 опасность
перегрева
1001.2 999.1 +37.3
18 16.08 В 2 5000 м мгла {гроза} 3/3 900 м
[Cb calv]
+35.0 +22.3 48 +44 +44 опасность
перегрева
1002.7 1000.6
21 16.08 СЗ 2 5000 м мгла ясно +32.3 +24.7 64 +45 +45 опасность
перегрева
1000.9 998.8
00 17.08 штиль 0 5000 м мгла ясно +31.9 +19.0 46 +37 +37 очень
душно
1000.6 998.5
03 17.08 штиль 0 5000 м мгла 1/0
[Ac trans]
+32.3 +23.4 59 +43 +45 опасность
перегрева
1001.9 999.8 +31.2
06 17.08 Ю 4 7000 м мгла ясно +36.4 +27.2 59 +54 +64 опасность
перегрева
1002.7 1000.6
09 17.08 Ю 5 8000 м мгла ясно +36.6 +29.7 68 +62 +73 опасность
перегрева
1002.2 1000.1
12 17.08 ЮЗ 7 10 км ясно +38.4 +21.7 38 +46 +48 опасность
перегрева
1000.7 998.6
15 17.08 З 5 10 км ясно +35.4 +26.7 61 +53 +53 опасность
перегрева
999.4 997.3 +39.4
18 17.08 З 4 10 км ясно +34.2 +28.6 73 +57 +57 опасность
перегрева
1000.3 998.2
21 17.08 С 4 10 км ясно +33.4 +28.6 76 +56 +56 опасность
перегрева
997.9
00 18.08 З 4 10 км ясно +33.0 +29.0 80 +57 +57 опасность
перегрева
999.5 997.4
03 18.08 З 3 10 км ясно +32.8 +32.3 97 +69 +70 опасность
перегрева
1000.7 998.6 +32.0
06 18.08 ЮЗ 5 10 км ясно +36.0 +29.9 71 +62 +70 опасность
перегрева
1001.9 999.8

 

Местоположение метеостанции Bandar Lengeh (Иран): широта 26.58 долгота 54.83 высота над уровнем моря 14 м.

В архиве по умолчанию представлена погода в Bandar Lengeh за последнюю неделю. Архивные данные за месяц целиком и за предыдущие месяцы, начиная с января 2011 года, Вы можете получить, выбрав интересующий диапазон дат из раскрывающегося списка и нажав кнопку "Ввод!".

Внимание! Время в таблицах - всемирное. Для получения местного времени необходимо прибавить поправку, которая в Bandar Lengeh равна 3.5 ч.

Смотрите также архив погоды в соседних городах и на ближайших метеорологических станциях:

Погода в Sirri Island (Иран) (80 км)
Погода в Abu Musa Island (Иран) (83 км)
Погода в Kish Island (Иран) (85 км)
Погода в Khasab (Оман) (146 км)
Погода в Khasab Airport (Оман) (147 км)
Погода в Ras Al Khaimah Int Airport (ОАЭ) (153 км)
Погода в Sharjah (ОАЭ) (155 км)
Погода в Dubai (ОАЭ) (156 км)
Погода в Bandarabbass (Иран) (169 км)
Погода в Diba (Оман) (178 км)

Пояснения к столбцам:

Ветер - указаны скорость ветра в м/с - средняя за 10 мин, порывы в срок и между сроками (в фигурных скобках) и направление, откуда дует ветер: С - северный, СВ - северо-восточный, В - восточный, ЮВ - юго-восточный, Ю - южный, ЮЗ - юго-западный, З - западный, СЗ - северо-западный.
Видимость - горизонтальная дальность видимости в метрах или километрах. При видимости от 1 до 10 км при отсутствии осадков обычно наблюдается дымка, при ухудшении видимости до 1 км и менее - туман. В сухую погоду видимость может ухудшаться дымом, пылью или мглою.
Явления - указаны атмосферные явления, наблюдавшиеся в срок или в последний час перед сроком; фигурными скобками обозначены явления, наблюдавшиеся между сроками (за 1-3 часа до срока); квадратными скобками обозначены град или гололедные отложения с указанием их диаметра в мм.
Облачность - указаны через наклонную черту общая и нижняя облачность в баллах и высота нижней границы облаков в метрах; квадратными скобками обозначены формы облаков: Ci - перистые, Cs - перисто-слоистые, Cc - перисто-кучевые, Ac - высококучевые, As - высокослоистые, Sc - слоисто-кучевые, Ns - слоисто-дождевые, Cu - кучевые, Cb - кучево-дождевые. Подробнее классификацию облаков см. в Атласе облаков (PDF).
T - Температура воздуха - температура, измеренная на высоте 2 м над землей.
Td - Температура точки росы - температура, при понижении до которой содержащийся в воздухе водяной пар достигнет насыщения.
f - Относительная влажность воздуха - влажноcть воздуха, измеренная на высоте 2 м над землей.
Te - Эффективная температура - температура, которую ощущает одетый по сезону человек в тени. Характеристика душности погоды. При расчете учитывается влияние влажности воздуха и скорости ветра на теплоощущения человека.
Tes - Эффективная температура на солнце - температура, которую ощущает человек, с поправкой на солнечный нагрев. Характеристика знойности погоды. Зависит от высоты солнца над горизонтом, облачности и скорости ветра. Ночью, в пасмурную погоду, а также при ветре 12 м/с и более поправка равна нулю.
P - Атмосферное давление - приведенное к уровню моря атмосферное давление.
Po - Атмосферное давление - измеренное на уровне метеостанции атмосферное давление.
Tmin - Минимальная температура - минимум температуры воздуха на высоте 2 м над землей.
Tmax - Максимальная температура - максимум температуры воздуха на высоте 2 м над землей.
R - Количество осадков - Количество выпавших осадков за период времени, мм. При наведении курсора мыши на число - период времени, за который выпало указанное количество осадков.
R24 - Количество осадков - Количество выпавших осадков за 24 часа, мм.
S - Снежный покров - Высота снежного покрова, см. При наведении курсора мыши на число - состояние снежного покрова и степень покрытия местности в баллах.